International Virtual Aviation Organisation

Russian Federation and Kazakhstan MCD

 

Карточка аэропорта UNOO

Внимание!
Информация на этой странице в стадии наполнения.
Если вы не увидели какой-то информации, или заметили неточность - пожалуйста сообщите нам!
Спасибо!
Команда RU-STAFF
Название аэропортаЦентральный
Название аэропорта (англ.)Tsentralny
Превышение303 ft. (92.4 m.)
Координаты54°58.02', 73°19.02'
Высота перехода800m
Эшелон переходаQFE>=751mm:FL050; QFE<751=>724:FL060; QFE<724:FL070
Коды ответчика5440-5467
Зона ОрВДНовосибирск РПИ (UNNT)
Данные METARUNOO 281330Z 03006MPS 9999 BKN014 M11/M14 Q1034 R07/410250 NOSIG RMK QFE767
Проноз погоды (TAF)UNOO 281050Z 2812/2912 02003G08MPS 6000 BKN010 TEMPO 2812/2818 2100 -SN BR BKN006 TEMPO 2818/2903 1000 -SN BR VV003
NOTAMshow/hide NOTAM
AWOS   TABLE

Информация о ВПП

ВПП Длина ВПП (м.) Покрытие Курс ВПП Частота ILS
072501Асфальтобетон65108.3
252501Асфальтобетон245110.1

Диспетчерские позиции

Позывной Наименование органа УВД Частота
UNOO_GNDОмск-Руление121.700
UNOO_TWRОмск - Старт119.000
UNOO_APPОмск - Подход131.200



Спутниковое изображение